Tracking 19795 objects as of 19-Jul-2019
HD Live streaming from Space Station
objects crossing your sky now

COSMOS 1771 FUEL CORE

Track COSMOS 1771 FUEL CORE now!
10-day predictions


NORAD ID: 17035
Int'l Code: 1986-062C
Perigee: 920.9 km
Apogee: 975.9 km
Inclination: 65.0 °
Period: 103.9 minutes
Semi major axis: 7319 km
RCS: 0.1808 m2 (medium)
Launch date: August 20, 1986
Source: Commonwealth of Independent States (former USSR) (CIS)
Launch site: TYURATAM MISSILE AND SPACE COMPLEX (TTMTR)

Note: This is SATELLITE DEBRIS
aabbcc
Your satellite tracking list
Your tracking list is empty




NASA's NSSDC Master Catalog

Two Line Element Set (TLE):
1 17035U 86062C   19198.62804611 -.00000091 +00000-0 -18253-5 0  9990
2 17035 064.9914 206.8319 0037570 350.5037 103.5661 13.86393207658356
Source of the keplerian elements: AFSPC